Orange, VA

3:14 AM EDT on May 24, 2018 (GMT -0400)
Orange County

Weather History for KOMH - January, 2013

Change the Weather History Date:

Tuesday, January 22, 2013

  Actual Average Record
Temperature  
Mean Temperature 23 °F -  
Max Temperature 32 °F 41 °F 70 °F (1959)
Min Temperature 14 °F 21 °F -4 °F (1984)
Degree Days  
Heating Degree Days 42    
Moisture  
Dew Point 2 °F    
Average Humidity 40    
Maximum Humidity 79    
Minimum Humidity 25    
Precipitation  
Precipitation 0.00 in - - ()
Sea Level Pressure  
Sea Level Pressure 30.17 in    
Wind  
Wind Speed 10 mph (WSW)    
Max Wind Speed 23 mph    
Max Gust Speed 34 mph    
Visibility 10 miles    
Events      
Averages and records for this station are not official NWS values.
T = Trace of Precipitation, MM = Missing Value Source: NWS Daily Summary

Daily Weather History Graph

Daily Weather History Graph

Search for Another Location

Airport or City:

Astronomy

Jan. 22, 2013 Rise Set
Actual Time 7:24 AM EST 5:23 PM EST
Civil Twilight 6:55 AM EST 5:52 PM EST
Nautical Twilight 6:23 AM EST 6:24 PM EST
Astronomical Twilight 5:52 AM EST 6:55 PM EST
Moon 1:46 PM EST (1/22) 3:43 AM EST (1/22)
Length of Visible Light 10h 56m
Length of Day
9h 59m
Waxing Gibbous, 82% of the Moon is Illuminated
Jan 22
Waxing Gibbous
Jan 26
Full
Feb 3
Last Quarter
Feb 10
New
Feb 17
First Quarter

Hourly Weather History & Observations

Time (EST) Temp. Windchill Dew Point Humidity Pressure Visibility Wind Dir Wind Speed Gust Speed Precip Events Conditions
12:15 AM 32.0 °F 24.2 °F 10.4 °F 41% 29.95 in 10.0 mi WSW 9.2 mph - N/A   Clear
12:35 AM 32.0 °F 25.6 °F 12.2 °F 44% 29.95 in 10.0 mi WSW 6.9 mph - N/A   Clear
12:55 AM 32.0 °F 21.2 °F 10.4 °F 41% 29.96 in 10.0 mi West 16.1 mph 19.6 mph N/A   Clear
1:15 AM 32.0 °F 22.1 °F 10.4 °F 41% 29.97 in 10.0 mi WSW 13.8 mph 18.4 mph N/A   Clear
1:35 AM 32.0 °F 24.2 °F 12.2 °F 44% 29.98 in 10.0 mi WSW 9.2 mph 18.4 mph N/A   Clear
1:55 AM 30.2 °F 22.6 °F 12.2 °F 47% 29.99 in 10.0 mi WSW 8.1 mph - N/A   Clear
2:15 AM 30.2 °F 21.3 °F 10.4 °F 44% 30.01 in 10.0 mi WSW 10.4 mph 18.4 mph N/A   Clear
2:55 AM 28.4 °F 18.0 °F 8.6 °F 43% 30.03 in 10.0 mi WSW 12.7 mph 17.3 mph N/A   Clear
3:15 AM 28.4 °F 19.1 °F 6.8 °F 40% 30.04 in 10.0 mi WSW 10.4 mph 16.1 mph N/A   Clear
3:35 AM 28.4 °F 18.0 °F 5.0 °F 37% 30.04 in 10.0 mi WSW 12.7 mph 21.9 mph N/A   Clear
3:55 AM 26.6 °F 16.2 °F 6.8 °F 43% 30.05 in 10.0 mi WSW 11.5 mph 21.9 mph N/A   Clear
4:15 AM 26.6 °F 19.1 °F 8.6 °F 47% 30.06 in 10.0 mi West 6.9 mph - N/A   Clear
4:35 AM 24.8 °F 13.4 °F 5.0 °F 43% 30.08 in 10.0 mi WSW 12.7 mph 21.9 mph N/A   Clear
4:55 AM 24.8 °F 15.3 °F 3.2 °F 40% 30.09 in 10.0 mi West 9.2 mph - N/A   Clear
5:15 AM 23.0 °F 12.4 °F 3.2 °F 43% 30.10 in 10.0 mi West 10.4 mph - N/A   Clear
5:35 AM 23.0 °F 14.7 °F 1.4 °F 39% 30.11 in 10.0 mi West 6.9 mph 16.1 mph N/A   Clear
5:55 AM 23.0 °F 10.6 °F 1.4 °F 39% 30.12 in 10.0 mi WSW 13.8 mph 20.7 mph N/A   Clear
6:15 AM 23.0 °F 7.2 °F -0.4 °F 36% 30.13 in 10.0 mi WSW 23.0 mph 34.5 mph N/A   Clear
6:35 AM 21.2 °F 6.4 °F -0.4 °F 39% 30.14 in 10.0 mi WSW 18.4 mph 25.3 mph N/A   Clear
6:55 AM 21.2 °F 8.9 °F -0.4 °F 39% 30.15 in 10.0 mi WSW 12.7 mph - N/A   Clear
7:15 AM 21.2 °F 8.3 °F -0.4 °F 39% 30.16 in 10.0 mi WSW 13.8 mph - N/A   Clear
7:35 AM 21.2 °F 10.1 °F -0.4 °F 39% 30.16 in 10.0 mi WSW 10.4 mph - N/A   Clear
7:55 AM 21.2 °F 8.9 °F -0.4 °F 39% 30.17 in 10.0 mi WSW 12.7 mph 16.1 mph N/A   Clear
8:15 AM 21.2 °F 10.1 °F -0.4 °F 39% 30.18 in 10.0 mi WSW 10.4 mph 18.4 mph N/A   Clear
8:35 AM 21.2 °F 6.8 °F -4.0 °F 33% 30.19 in 10.0 mi WSW 17.3 mph 23.0 mph N/A   Clear
8:55 AM 23.0 °F 10.6 °F -4.0 °F 31% 30.20 in 10.0 mi WSW 13.8 mph 21.9 mph N/A   Clear
9:15 AM 23.0 °F 10.6 °F -4.0 °F 31% 30.22 in 10.0 mi WSW 13.8 mph 20.7 mph N/A   Clear
9:35 AM 23.0 °F 9.6 °F -4.0 °F 31% 30.23 in 10.0 mi WSW 16.1 mph 20.7 mph N/A   Clear
9:55 AM 23.0 °F 10.6 °F -2.2 °F 33% 30.23 in 10.0 mi WSW 13.8 mph 21.9 mph N/A   Clear
10:15 AM 23.0 °F 11.1 °F -2.2 °F 33% 30.24 in 10.0 mi WSW 12.7 mph 20.7 mph N/A   Clear
10:35 AM 23.0 °F 11.7 °F -0.4 °F 36% 30.24 in 10.0 mi WSW 11.5 mph 18.4 mph N/A   Clear
10:55 AM 23.0 °F 13.1 °F -0.4 °F 36% 30.23 in 10.0 mi SW 9.2 mph - N/A   Clear
11:15 AM 24.8 °F 14.0 °F -2.2 °F 31% 30.23 in 10.0 mi WSW 11.5 mph - N/A   Clear
11:35 AM 24.8 °F 12.9 °F -2.2 °F 31% 30.22 in 10.0 mi SW 13.8 mph 19.6 mph N/A   Clear
11:55 AM 26.6 °F 18.2 °F -0.4 °F 31% 30.22 in 10.0 mi West 8.1 mph - N/A   Clear
12:15 PM 26.6 °F 18.2 °F -0.4 °F 31% 30.20 in 10.0 mi WSW 8.1 mph - N/A   Clear
12:35 PM 26.6 °F 18.2 °F -0.4 °F 31% 30.19 in 10.0 mi West 8.1 mph 19.6 mph N/A   Clear
12:55 PM 26.6 °F 14.7 °F -0.4 °F 31% 30.19 in 10.0 mi WSW 15.0 mph - N/A   Clear
1:15 PM 26.6 °F 16.8 °F -0.4 °F 31% 30.18 in 10.0 mi West 10.4 mph 18.4 mph N/A   Clear
1:35 PM 26.6 °F 16.2 °F -2.2 °F 29% 30.18 in 10.0 mi WSW 11.5 mph 18.4 mph N/A   Clear
1:55 PM 28.4 °F 17.5 °F -0.4 °F 29% 30.17 in 10.0 mi SW 13.8 mph 17.3 mph N/A   Clear
2:15 PM 28.4 °F 18.0 °F -2.2 °F 27% 30.17 in 10.0 mi SSW 12.7 mph 18.4 mph N/A   Clear
2:35 PM 28.4 °F 19.1 °F -2.2 °F 27% 30.16 in 10.0 mi SW 10.4 mph 19.6 mph N/A   Clear
2:55 PM 28.4 °F 17.0 °F -2.2 °F 27% 30.17 in 10.0 mi WSW 15.0 mph 24.2 mph N/A   Clear
3:15 PM 28.4 °F 18.5 °F -2.2 °F 27% 30.17 in 10.0 mi West 11.5 mph 18.4 mph N/A   Clear
3:35 PM 28.4 °F 18.5 °F -4.0 °F 25% 30.17 in 10.0 mi WSW 11.5 mph 17.3 mph N/A   Clear
3:55 PM 28.4 °F 19.7 °F -4.0 °F 25% 30.18 in 10.0 mi West 9.2 mph - N/A   Clear
4:15 PM 28.4 °F 18.0 °F -2.2 °F 27% 30.18 in 10.0 mi WSW 12.7 mph - N/A   Clear
4:35 PM 28.4 °F 18.5 °F -2.2 °F 27% 30.18 in 10.0 mi West 11.5 mph - N/A   Clear
4:55 PM 26.6 °F 19.1 °F -2.2 °F 29% 30.19 in 10.0 mi West 6.9 mph - N/A   Clear
5:15 PM 26.6 °F 17.5 °F -2.2 °F 29% 30.20 in 10.0 mi WSW 9.2 mph - N/A   Clear
5:35 PM 26.6 °F 19.1 °F -2.2 °F 29% 30.21 in 10.0 mi WSW 6.9 mph - N/A   Clear
5:55 PM 26.6 °F 19.1 °F -0.4 °F 31% 30.22 in 10.0 mi West 6.9 mph - N/A   Clear
6:15 PM 24.8 °F 19.1 °F -0.4 °F 34% 30.23 in 10.0 mi West 4.6 mph - N/A   Clear
6:35 PM 24.8 °F - -2.2 °F 31% 30.23 in 10.0 mi Calm Calm - N/A   Clear
6:55 PM 23.0 °F 18.4 °F -0.4 °F 36% 30.23 in 10.0 mi West 3.5 mph - N/A   Clear
7:15 PM 21.2 °F 14.9 °F 3.2 °F 46% 30.24 in 10.0 mi West 4.6 mph - N/A   Clear
7:35 PM 19.4 °F - 6.8 °F 58% 30.24 in 10.0 mi Calm Calm - N/A   Clear
7:55 PM 19.4 °F - 5.0 °F 54% 30.25 in 10.0 mi Calm Calm - N/A   Clear
8:15 PM 17.6 °F - 8.6 °F 68% 30.26 in 10.0 mi Calm Calm - N/A   Clear
8:35 PM 17.6 °F - 6.8 °F 63% 30.26 in 10.0 mi Calm Calm - N/A   Clear
8:55 PM 17.6 °F 12.3 °F 6.8 °F 63% 30.26 in 10.0 mi NNE 3.5 mph - N/A   Clear
9:15 PM 19.4 °F - 3.2 °F 49% 30.27 in 10.0 mi Calm Calm - N/A   Clear
9:35 PM 19.4 °F 12.8 °F 3.2 °F 49% 30.27 in 10.0 mi North 4.6 mph - N/A   Clear
9:55 PM 19.4 °F 14.3 °F 3.2 °F 49% 30.28 in 10.0 mi WNW 3.5 mph - N/A   Clear
10:15 PM 17.6 °F - 5.0 °F 58% 30.29 in 10.0 mi Calm Calm - N/A   Clear
10:35 PM 17.6 °F 12.3 °F 5.0 °F 58% 30.29 in 10.0 mi South 3.5 mph - N/A   Clear
10:55 PM 15.8 °F - 5.0 °F 62% 30.29 in 10.0 mi Calm Calm - N/A   Clear
11:15 PM 14.0 °F - 8.6 °F 79% 30.29 in 10.0 mi Calm Calm - N/A   Clear
11:35 PM 14.0 °F 8.2 °F 5.0 °F 67% 30.29 in 10.0 mi SSW 3.5 mph - N/A   Clear
11:55 PM 14.0 °F - 6.8 °F 73% 30.29 in 10.0 mi Calm Calm - N/A   Clear